Overview Statistics Trail Chart Weather Telemetry Raw packets
 

This is the latest recevied weather packets stored in our database for station/object OE5MMP-13. If no packets are shown the sender has not sent any weather packets the latest 10 day(s).

<< 39 40 41 42 43 44 45 >>
Time Temp. Humidity Pressure Rain* Wind** Luminosity Snow
1788089006 24.44° C 53% 1017.9 hPa 0 mm - 771 W/m² -
1788088405 24.44° C 55% 1018 hPa 0 mm - 754 W/m² -
1788087805 25° C 56% 1018.2 hPa 0 mm - 746 W/m² -
1788087215 24.44° C 55% 1018.2 hPa 0 mm - 757 W/m² -
1788086605 24.44° C 59% 1018.4 hPa 0 mm - 756 W/m² -
1788086005 24.44° C 57% 1018.4 hPa 0 mm - 746 W/m² -
1788085405 24.44° C 56% 1018.4 hPa 0 mm - 721 W/m² -
1788084805 24.44° C 55% 1018.5 hPa 0 mm - 732 W/m² -
1788084206 24.44° C 57% 1018.6 hPa 0 mm - 750 W/m² -
1788083605 23.89° C 58% 1018.7 hPa 0 mm - 767 W/m² -
1788083005 23.33° C 57% 1018.6 hPa 0 mm - 719 W/m² -
1788082405 23.33° C 56% 1018.5 hPa 0 mm - 694 W/m² -
1788081805 23.33° C 59% 1018.7 hPa 0 mm - 684 W/m² -
1788081205 23.33° C 60% 1018.8 hPa 0 mm - 676 W/m² -
1788080605 22.78° C 60% 1018.9 hPa 0 mm - 644 W/m² -
1788080005 22.22° C 62% 1018.9 hPa 0 mm - 628 W/m² -
1788079405 22.22° C 63% 1018.9 hPa 0 mm - 627 W/m² -
1788078805 21.67° C 62% 1018.8 hPa 0 mm - 596 W/m² -
1788078205 22.22° C 62% 1018.9 hPa 0 mm - 576 W/m² -
1788077605 21.67° C 61% 1018.7 hPa 0 mm - 279 W/m² -
1788077005 21.67° C 64% 1019.1 hPa 0 mm - 592 W/m² -
1788076405 21.67° C 64% 1019 hPa 0 mm - 550 W/m² -
1788075804 22.22° C 58% 1018.8 hPa 0 mm - 492 W/m² -
1788075213 22.22° C 58% 1018.8 hPa 0 mm - 471 W/m² -
1788074604 22.22° C 59% 1018.8 hPa 0 mm - 495 W/m² -

* Rain latest hour (hover to see other rain measurements)
** Current wind speed in m/s (hover to see current wind gust speed)